Wind_Speed
33 32 30 29 27 26 24 23 23 22 21 21 20 20 20 20 20 22 23 24 25 26 27 29 30 31 33 34 35 36 37 37 38 38 39 39 39 39 39 38 38 38 37
34 33 31 29 28 27 26 25 24 22 22 22 21 21 21 21 22 23 24 25 26 28 28 29 31 32 34 35 36 37 37 38 38 39 40 40 40 39 39 39 39 39 38
34 33 32 30 29 28 27 26 25 24 23 23 22 22 22 22 23 24 25 26 28 29 29 30 32 33 34 36 37 37 38 38 39 40 40 40 40 40 40 40 40 40 39
35 34 33 31 30 29 28 27 26 25 24 23 23 23 23 24 25 25 26 27 28 29 30 31 33 34 35 37 37 38 38 39 40 41 41 41 41 41 41 41 41 41 40
35 35 33 32 31 30 29 27 27 26 25 25 24 24 25 25 26 26 27 28 29 30 31 33 34 35 36 37 38 39 39 39 40 41 41 41 42 42 42 42 42 42 42
35 35 34 32 31 30 29 28 28 27 26 26 25 26 26 27 27 28 29 30 31 32 33 34 35 36 37 38 39 40 40 40 41 42 42 42 43 43 43 43 43 43 44
35 35 34 33 32 31 30 29 28 28 27 27 27 27 28 28 28 29 30 31 32 33 34 35 36 37 38 39 40 41 41 41 42 42 43 43 44 44 44 44 45 45 46
36 35 34 33 32 31 30 30 29 28 28 28 28 28 29 29 30 30 31 32 33 34 35 36 37 38 39 40 41 41 42 42 43 43 44 44 45 46 46 46 47 47 48
36 35 34 33 32 31 30 29 29 29 28 28 29 29 29 30 31 31 32 33 34 35 36 37 38 39 40 41 41 42 42 43 43 44 45 46 46 47 47 48 49 50 51
37 36 35 34 33 32 31 30 30 29 29 29 29 29 30 31 31 32 33 34 35 36 37 38 39 40 40 41 42 43 43 44 44 45 46 47 47 48 49 50 51 53 54
37 36 36 35 34 33 32 31 30 30 30 30 30 30 31 32 32 32 33 34 36 37 38 39 40 40 41 42 42 43 44 44 45 46 47 48 49 50 51 52 54 55 56
37 36 36 35 34 33 33 32 31 31 31 31 31 32 33 33 33 33 34 35 36 38 39 40 41 41 42 42 43 44 44 45 46 47 48 49 51 52 53 55 57 58 59
38 37 36 36 35 34 34 33 33 32 32 33 33 33 34 34 34 34 35 36 37 38 39 40 41 42 43 43 44 44 45 46 47 48 49 51 53 54 56 58 59 61 60
39 39 38 37 36 35 35 35 34 34 34 34 34 34 35 35 35 35 36 37 38 38 39 40 41 42 43 44 45 45 46 47 48 50 51 53 55 57 59 60 62 62 61
40 40 39 38 37 36 36 36 35 35 34 35 35 35 35 35 35 36 37 38 39 39 39 40 42 43 43 44 45 45 46 48 50 52 54 56 58 59 61 62 62 61 60
41 41 40 39 38 37 37 36 35 35 36 36 36 35 36 35 36 36 37 38 39 40 40 41 42 43 43 45 45 46 47 49 52 54 56 58 60 61 62 62 61 60 59
41 41 41 40 39 38 37 36 36 36 37 36 36 36 36 36 37 37 38 39 40 41 42 42 43 43 44 45 45 47 49 51 54 56 58 60 61 62 62 61 59 58 58
41 41 41 40 39 38 37 36 36 36 37 37 37 36 36 37 37 38 38 39 40 41 42 42 43 43 44 45 46 48 50 53 55 57 59 61 61 61 61 60 59 58 57
42 41 41 40 38 37 36 36 36 36 36 37 36 36 36 37 37 38 39 40 40 42 42 42 43 43 44 46 47 49 52 54 56 58 59 60 61 60 60 59 58 57 58
43 41 40 39 38 37 37 36 36 36 36 36 36 36 37 37 37 38 39 40 41 41 41 42 42 43 46 47 49 50 52 55 56 58 59 60 59 59 59 59 58 58 59
43 41 40 39 38 38 37 36 36 36 36 37 37 37 37 37 37 38 39 39 40 40 41 42 43 45 46 47 49 51 53 55 56 58 59 59 59 59 59 58 58 58 59
45 43 40 40 40 39 38 37 37 36 37 37 36 35 36 37 37 37 38 39 39 40 40 41 43 45 46 48 50 52 54 55 56 57 59 59 58 58 58 58 58 58 59
44 44 43 41 41 39 38 37 37 38 37 37 36 35 35 36 36 37 38 38 39 40 41 42 43 45 47 49 51 53 54 55 56 58 58 57 58 59 58 58 58 58 58
45 45 45 43 42 41 40 40 39 38 37 36 36 35 35 35 36 37 37 38 39 40 41 42 44 46 47 50 51 53 54 56 57 58 57 58 58 59 60 58 57 58 58
46 45 44 44 43 43 42 41 39 37 37 36 35 34 34 35 35 36 37 38 38 39 41 42 44 45 47 49 51 53 54 55 57 57 57 58 58 58 59 58 57 57 57
46 46 45 43 43 42 41 40 39 38 37 36 35 34 34 35 35 36 37 37 38 39 41 42 43 45 47 49 51 52 54 55 56 56 57 58 58 58 57 57 57 57 57
Wind_Direction
232 233 235 237 240 243 247 249 252 256 260 264 269 274 280 285 291 297 301 305 308 311 313 315 316 318 319 320 321 321 321 322 322 322 322 322 321 321 321 320 319 318 317
231 233 235 237 239 242 246 248 251 254 259 265 269 275 280 284 290 295 300 303 307 310 312 314 316 317 318 319 320 320 320 320 320 321 321 320 320 320 319 319 318 316 315
231 233 235 237 239 242 245 248 250 254 259 264 269 275 280 285 289 293 298 303 306 309 311 313 315 316 317 318 318 319 319 319 319 320 320 320 319 319 318 317 316 315 314
231 233 234 237 239 242 245 247 250 254 259 264 269 275 280 285 288 293 297 301 304 307 310 312 314 315 315 316 317 318 318 318 318 319 319 318 318 317 317 316 315 314 313
231 232 233 236 238 241 244 247 250 254 258 264 269 274 280 284 288 292 296 299 303 306 308 311 312 313 314 315 316 317 317 317 317 318 318 317 317 316 315 314 314 313 312
230 232 233 236 238 241 244 247 250 254 258 264 269 274 280 284 287 291 295 298 301 305 307 309 311 312 313 314 315 315 316 316 316 317 316 316 316 315 315 314 313 312 311
230 232 233 235 238 241 244 247 251 255 258 264 269 275 279 283 287 290 293 297 300 304 307 308 310 311 312 313 313 314 314 314 315 315 315 315 315 315 314 313 312 312 311
230 231 232 235 238 242 245 248 252 255 259 264 269 275 279 283 286 289 292 296 299 303 306 307 309 310 311 312 312 313 313 313 314 314 314 314 314 314 313 313 313 312 311
230 231 232 235 239 242 246 249 252 256 260 265 270 275 279 283 286 289 292 295 299 302 305 306 308 309 310 311 311 312 312 313 313 313 314 314 314 314 313 313 312 312 311
230 231 233 236 239 242 246 250 253 258 262 266 271 275 279 282 285 288 292 295 298 302 304 305 306 308 309 310 310 311 312 312 312 313 313 314 313 313 313 313 312 312 312
230 232 234 237 240 243 247 251 254 259 263 267 271 275 279 282 285 287 291 294 298 301 303 304 305 307 308 309 310 310 311 311 312 312 313 314 313 313 313 313 313 313 312
230 232 234 237 240 244 247 251 255 259 263 267 271 275 279 282 284 287 290 293 297 300 302 303 304 306 308 309 309 310 310 311 312 313 313 313 313 313 313 313 313 312 311
231 233 235 238 241 245 248 251 255 260 264 267 271 275 279 281 284 287 290 293 297 299 301 303 304 306 308 308 309 310 310 311 312 313 313 313 313 314 313 313 313 312 310
231 233 235 238 240 244 248 252 256 260 263 266 271 275 278 281 284 287 290 294 296 299 301 302 304 306 307 308 309 309 310 311 312 313 313 313 314 314 314 313 313 312 311
230 233 235 237 240 244 248 252 256 260 263 267 271 275 278 281 284 288 291 294 297 298 300 302 304 305 307 308 308 309 310 311 312 313 313 313 314 314 314 313 313 312 312
230 233 235 238 241 245 249 253 257 261 264 267 270 274 278 281 285 288 291 294 297 299 301 303 304 305 306 307 308 309 309 311 312 313 313 314 314 314 314 314 313 312 312
231 233 236 238 242 246 250 254 258 261 264 267 270 274 278 281 284 288 291 294 297 299 301 303 304 304 305 307 308 309 309 311 312 313 314 314 315 315 315 315 314 313 313
231 233 236 239 242 246 250 254 258 261 264 267 271 274 277 281 284 287 291 294 296 299 301 303 304 304 306 307 308 308 309 311 313 314 314 315 316 316 316 316 315 314 314
231 233 236 239 242 246 250 254 258 261 264 267 270 274 277 281 284 287 290 294 297 299 301 302 303 304 306 307 308 309 310 312 313 314 315 316 316 316 316 316 316 315 315
231 233 236 239 243 246 250 254 258 261 263 266 270 273 276 281 284 287 291 294 297 298 300 302 303 304 306 307 309 310 311 313 314 315 317 317 317 317 317 317 316 315 315
231 234 236 239 243 246 250 255 260 261 264 268 271 274 276 280 284 288 292 294 296 298 300 302 304 305 306 308 310 311 313 314 315 317 317 318 317 317 317 317 316 316 316
232 234 237 239 243 247 251 255 260 262 266 269 272 274 277 281 285 289 292 295 296 299 301 302 304 306 308 310 311 312 314 315 316 317 318 318 318 318 318 317 317 317 317
231 234 237 240 244 247 251 255 259 262 265 269 272 274 278 282 286 289 292 294 296 299 301 303 305 307 309 311 313 314 315 316 317 318 319 319 319 319 318 318 318 318 318
233 236 238 242 245 248 251 254 258 262 265 268 271 275 278 282 286 289 291 294 297 299 301 304 306 308 310 313 314 315 317 318 319 320 320 319 319 319 319 318 319 319 319
236 238 240 243 245 248 251 255 257 261 265 268 271 274 278 281 285 288 291 295 298 300 302 305 307 309 311 313 315 316 317 318 320 320 321 320 320 320 320 320 320 320 320
235 238 241 243 245 247 251 254 256 260 264 268 271 274 277 281 285 289 292 295 298 300 303 306 308 310 312 314 316 317 318 319 320 321 321 321 322 322 321 321 321 321 322
Height
5816 5819 5822 5825 5828 5830 5832 5834 5835 5836 5837 5838 5838 5838 5838 5838 5837 5836 5835 5833 5831 5829 5826 5824 5821 5818 5814 5811 5807 5803 5799 5795 5791 5786 5782 5777 5772 5768 5763 5759 5755 5750 5746
5810 5813 5817 5820 5822 5825 5827 5829 5831 5832 5833 5833 5834 5834 5834 5833 5833 5832 5830 5828 5826 5824 5821 5819 5816 5812 5809 5805 5802 5798 5793 5789 5785 5780 5776 5771 5766 5762 5757 5753 5748 5744 5739
5804 5807 5811 5814 5817 5819 5822 5824 5825 5827 5828 5829 5829 5829 5829 5828 5828 5827 5825 5823 5821 5819 5816 5813 5810 5807 5803 5800 5796 5792 5787 5783 5778 5774 5769 5764 5760 5755 5750 5746 5741 5737 5732
5797 5801 5805 5808 5811 5814 5816 5819 5820 5822 5823 5824 5824 5824 5824 5823 5823 5821 5820 5818 5816 5814 5811 5808 5805 5801 5798 5794 5790 5786 5781 5777 5772 5767 5763 5758 5753 5748 5743 5739 5734 5730 5725
5791 5795 5799 5802 5805 5808 5811 5813 5815 5816 5818 5818 5819 5819 5819 5818 5817 5816 5814 5813 5811 5808 5805 5802 5799 5795 5792 5788 5783 5779 5775 5770 5765 5760 5756 5751 5746 5741 5736 5731 5726 5722 5717
5785 5789 5793 5796 5799 5802 5805 5807 5809 5811 5812 5813 5813 5813 5813 5812 5811 5810 5809 5807 5805 5802 5799 5796 5793 5789 5785 5781 5777 5772 5768 5763 5758 5753 5748 5743 5738 5733 5728 5723 5718 5714 5709
5778 5782 5787 5790 5793 5796 5799 5801 5803 5805 5806 5807 5808 5807 5807 5806 5805 5804 5803 5801 5799 5796 5793 5790 5786 5783 5778 5774 5770 5766 5761 5756 5751 5746 5741 5736 5731 5725 5720 5715 5710 5705 5699
5772 5776 5780 5784 5787 5790 5793 5795 5797 5799 5800 5801 5802 5801 5801 5801 5799 5798 5796 5795 5792 5790 5787 5783 5780 5776 5772 5767 5763 5758 5753 5748 5743 5738 5733 5728 5722 5717 5712 5706 5701 5695 5690
5765 5769 5774 5777 5781 5784 5786 5789 5791 5792 5794 5795 5795 5796 5795 5794 5793 5792 5790 5788 5786 5783 5780 5776 5773 5769 5765 5760 5756 5751 5746 5741 5736 5731 5725 5720 5714 5708 5703 5697 5691 5685 5679
5758 5763 5767 5771 5774 5777 5780 5782 5784 5786 5787 5788 5788 5788 5788 5788 5787 5785 5783 5781 5779 5776 5773 5769 5765 5761 5757 5753 5748 5743 5738 5733 5728 5722 5717 5711 5705 5699 5693 5687 5681 5674 5667
5751 5755 5760 5764 5768 5771 5773 5775 5778 5779 5781 5781 5782 5781 5781 5780 5779 5778 5777 5774 5772 5769 5766 5762 5758 5754 5750 5745 5740 5735 5730 5725 5719 5714 5708 5702 5696 5690 5683 5677 5670 5663 5655
5744 5749 5753 5757 5761 5764 5766 5769 5770 5772 5773 5774 5775 5774 5774 5773 5772 5771 5770 5767 5765 5762 5758 5754 5750 5746 5741 5737 5732 5727 5721 5716 5711 5705 5699 5693 5686 5680 5673 5666 5658 5650 5642
5737 5742 5746 5750 5753 5756 5759 5761 5763 5765 5766 5767 5767 5767 5767 5766 5765 5764 5762 5760 5757 5754 5751 5746 5742 5738 5733 5728 5723 5718 5713 5707 5702 5696 5689 5683 5676 5669 5662 5654 5646 5637 5629
5730 5734 5738 5742 5745 5749 5751 5754 5756 5757 5759 5759 5760 5759 5759 5758 5757 5756 5754 5752 5749 5747 5743 5739 5734 5730 5725 5720 5715 5710 5704 5699 5693 5686 5680 5673 5665 5658 5650 5641 5633 5624 5615
5721 5726 5730 5734 5738 5741 5744 5746 5748 5750 5751 5752 5752 5752 5752 5751 5750 5748 5746 5744 5742 5739 5736 5731 5726 5721 5716 5711 5706 5701 5695 5690 5683 5677 5669 5662 5654 5646 5637 5628 5619 5609 5601
5713 5718 5722 5726 5730 5733 5736 5739 5741 5742 5743 5744 5744 5744 5744 5743 5742 5740 5738 5736 5733 5730 5727 5723 5718 5713 5708 5703 5697 5692 5686 5680 5673 5666 5658 5650 5642 5633 5624 5614 5604 5596 5587
5705 5710 5715 5719 5722 5726 5728 5731 5733 5734 5736 5736 5737 5736 5736 5735 5734 5732 5730 5727 5724 5721 5718 5714 5709 5705 5700 5694 5688 5683 5677 5670 5663 5655 5647 5638 5629 5620 5610 5600 5591 5583 5575
5697 5702 5707 5711 5715 5718 5721 5723 5725 5727 5728 5728 5729 5729 5728 5727 5726 5724 5722 5719 5716 5713 5709 5705 5701 5696 5691 5686 5680 5674 5667 5660 5653 5644 5635 5626 5616 5607 5597 5588 5579 5571 5562
5689 5694 5699 5703 5707 5710 5713 5716 5717 5719 5720 5720 5721 5721 5720 5719 5718 5716 5714 5711 5708 5704 5701 5697 5693 5687 5682 5677 5671 5665 5657 5650 5641 5633 5624 5614 5604 5594 5585 5576 5567 5558 5550
5681 5686 5691 5695 5699 5703 5705 5708 5710 5711 5712 5712 5713 5713 5712 5711 5710 5708 5706 5703 5700 5696 5692 5688 5684 5679 5674 5668 5662 5656 5648 5640 5631 5621 5612 5603 5593 5583 5573 5564 5556 5547 5538
5673 5678 5683 5687 5691 5694 5697 5700 5702 5703 5704 5704 5705 5705 5704 5703 5702 5700 5698 5695 5692 5688 5684 5680 5676 5671 5665 5659 5653 5646 5638 5630 5621 5611 5601 5592 5582 5573 5562 5553 5543 5534 5525
5665 5670 5674 5679 5683 5686 5689 5692 5694 5695 5696 5697 5697 5697 5696 5695 5693 5692 5689 5687 5684 5680 5676 5672 5667 5662 5656 5650 5643 5636 5628 5621 5613 5603 5592 5581 5571 5561 5551 5542 5532 5522 5513
5656 5662 5666 5671 5675 5678 5681 5683 5685 5687 5688 5688 5689 5689 5688 5687 5685 5683 5681 5678 5675 5672 5668 5664 5659 5653 5647 5641 5634 5626 5617 5609 5601 5591 5581 5571 5561 5551 5540 5530 5520 5511 5501
5648 5653 5658 5662 5666 5670 5672 5675 5677 5678 5679 5680 5681 5681 5680 5679 5677 5675 5673 5670 5667 5664 5660 5655 5650 5644 5638 5631 5624 5616 5607 5598 5589 5580 5570 5561 5550 5540 5529 5519 5509 5499 5489
5640 5645 5649 5654 5658 5661 5664 5666 5668 5669 5671 5672 5673 5673 5672 5671 5669 5667 5665 5663 5659 5655 5651 5646 5641 5635 5628 5621 5614 5606 5597 5588 5579 5569 5559 5550 5540 5530 5519 5508 5498 5488 5478
5631 5636 5641 5645 5649 5653 5656 5658 5660 5662 5663 5664 5665 5664 5664 5663 5661 5659 5657 5654 5651 5647 5642 5637 5632 5626 5619 5612 5604 5596 5587 5578 5569 5560 5549 5539 5529 5519 5510 5499 5487 5477 5467